.
WxDataArchive / Data Records for 2009-06-12
2009-06-11 June 2009 2009-06-13

Data Records for Friday, 12 June 2009

Time	Temp	Chill	HIndex	Humid	Dewpt	 Wind 	HiWind	WindDir	Rain 	Barom 
-----	----	-----	------	-----	-----	------	------	-------	-----	----- 
00:00	59.8	59.8	59.8	95	58.4	0	1	158	0.00	29.843 
00:05	59.8	59.8	59.8	95	58.4	1	5	112	0.00	29.843 
00:10	59.8	59.8	59.8	95	58.4	0	1	112	0.00	29.843 
00:15	59.8	59.8	59.8	95	58.4	1	3	112	0.00	29.847 
00:20	59.6	59.6	59.6	95	58.2	1	3	112	0.00	29.847 
00:25	59.6	59.6	59.6	95	58.2	1	3	112	0.00	29.847 
00:30	59.6	59.6	59.6	95	58.2	0	1	112	0.00	29.851 
00:35	59.6	59.6	59.6	95	58.2	0	2	112	0.00	29.851 
00:40	59.5	59.5	59.5	95	58.1	0	2	135	0.00	29.851 
00:45	59.5	59.5	59.5	95	58.1	0	3	135	0.00	29.853 
00:50	59.3	59.3	59.3	95	57.9	0	2	135	0.00	29.853 
00:55	59.3	59.3	59.3	94	57.6	0	2	135	0.00	29.853 
01:00	59.3	59.3	59.3	94	57.6	0	0	---	0.00	29.855 
01:05	59.3	59.3	59.3	94	57.6	0	2	135	0.00	29.855 
01:10	59.3	59.3	59.3	95	57.9	0	2	135	0.00	29.855 
01:15	59.3	59.3	59.3	95	57.9	0	1	135	0.00	29.855 
01:20	59.3	59.3	59.3	94	57.6	0	1	135	0.00	29.855 
01:25	59.3	59.3	59.3	95	57.9	0	2	135	0.00	29.855 
01:30	59.3	59.3	59.3	94	57.6	0	1	135	0.00	29.854 
01:35	59.3	59.3	59.3	95	57.9	0	1	135	0.00	29.854 
01:40	59.3	59.3	59.3	95	57.9	0	1	135	0.00	29.854 
01:45	59.3	59.3	59.3	94	57.6	0	1	135	0.00	29.855 
01:50	59.3	59.3	59.3	95	57.9	0	2	135	0.00	29.855 
01:55	59.3	59.3	59.3	95	57.9	0	2	135	0.00	29.855 
02:00	59.3	59.3	59.3	95	57.9	0	2	135	0.00	29.856 
02:05	59.3	59.3	59.3	94	57.6	0	3	68	0.00	29.856 
02:10	59.3	59.3	59.3	95	57.9	0	2	68	0.00	29.856 
02:15	59.3	59.3	59.3	95	57.9	0	2	68	0.00	29.854 
02:20	59.3	59.3	59.3	94	57.6	0	3	68	0.00	29.854 
02:25	59.3	59.3	59.3	94	57.6	0	1	68	0.00	29.854 
02:30	59.2	59.2	59.2	94	57.5	0	1	68	0.00	29.855 
02:35	59.2	59.2	59.2	94	57.5	0	3	90	0.00	29.855 
02:40	59.2	59.2	59.2	94	57.5	0	2	90	0.00	29.855 
02:45	59.2	59.2	59.2	94	57.5	0	1	90	0.00	29.855 
02:50	59.0	59.0	59.0	94	57.3	0	1	90	0.00	29.855 
02:55	58.9	58.9	58.9	94	57.2	0	4	135	0.00	29.855 
03:00	58.9	58.9	58.9	94	57.2	0	2	135	0.00	29.857 
03:05	58.9	58.9	58.9	94	57.2	0	0	---	0.00	29.857 
03:10	58.9	58.9	58.9	94	57.2	0	1	135	0.00	29.857 
03:15	58.9	58.9	58.9	94	57.2	0	1	135	0.00	29.860 
03:20	58.9	58.9	58.9	94	57.2	0	1	135	0.00	29.860 
03:25	58.9	58.9	58.9	95	57.5	0	0	---	0.00	29.860 
03:30	58.9	58.9	58.9	94	57.2	0	0	---	0.00	29.867 
03:35	58.9	58.9	58.9	95	57.5	0	0	---	0.00	29.867 
03:40	58.9	58.9	58.9	95	57.5	0	0	---	0.00	29.867 
03:45	58.7	58.7	58.7	95	57.3	0	0	---	0.00	29.860 
03:50	58.7	58.7	58.7	95	57.3	0	1	135	0.00	29.860 
03:55	58.7	58.7	58.7	95	57.3	0	0	---	0.00	29.860 
04:00	58.7	58.7	58.7	95	57.3	0	1	135	0.00	29.869 
04:05	58.6	58.6	58.6	95	57.2	0	2	135	0.00	29.869 
04:10	58.6	58.6	58.6	95	57.2	0	1	135	0.00	29.869 
04:15	58.6	58.6	58.6	95	57.2	0	1	135	0.00	29.872 
04:20	58.4	58.4	58.4	94	56.7	0	1	135	0.00	29.872 
04:25	58.4	58.4	58.4	94	56.7	0	2	135	0.00	29.872 
04:30	58.3	58.3	58.3	94	56.6	0	1	135	0.00	29.875 
04:35	58.3	58.3	58.3	94	56.6	0	1	135	0.00	29.875 
04:40	58.1	58.1	58.1	94	56.4	0	0	---	0.00	29.875 
04:45	58.1	58.1	58.1	94	56.4	0	1	135	0.00	29.888 
04:50	58.0	58.0	58.0	93	56.0	0	1	135	0.00	29.888 
04:55	58.0	58.0	58.0	93	56.0	0	1	135	0.00	29.888 
05:00	58.0	58.0	58.0	93	56.0	0	0	---	0.00	29.888 
05:05	58.0	58.0	58.0	93	56.0	0	1	135	0.00	29.888 
05:10	58.0	58.0	58.0	93	56.0	0	0	---	0.00	29.888 
05:15	58.0	58.0	58.0	93	56.0	0	1	135	0.00	29.885 
05:20	58.0	58.0	58.0	93	56.0	0	0	---	0.00	29.885 
05:25	58.0	58.0	58.0	93	56.0	0	1	135	0.00	29.885 
05:30	58.0	58.0	58.0	93	56.0	0	1	135	0.00	29.887 
05:35	58.0	58.0	58.0	93	56.0	0	2	135	0.00	29.887 
05:40	58.0	58.0	58.0	93	56.0	0	1	135	0.00	29.887 
05:45	58.0	58.0	58.0	93	56.0	0	2	135	0.00	29.891 
05:50	58.0	58.0	58.0	93	56.0	0	2	135	0.00	29.891 
05:55	57.8	57.8	57.8	93	55.8	0	0	---	0.00	29.891 
06:00	57.8	57.8	57.8	93	55.8	0	2	135	0.00	29.898 
06:05	57.6	57.6	57.6	93	55.6	0	2	135	0.00	29.898 
06:10	57.6	57.6	57.6	93	55.6	0	1	135	0.00	29.898 
06:15	57.6	57.6	57.6	93	55.6	0	0	---	0.00	29.898 
06:20	57.6	57.6	57.6	93	55.6	0	0	---	0.00	29.898 
06:25	57.6	57.6	57.6	93	55.6	0	0	---	0.00	29.898 
06:30	57.5	57.5	57.5	93	55.5	0	0	---	0.00	29.902 
06:35	57.5	57.5	57.5	93	55.5	0	1	135	0.00	29.902 
06:40	57.5	57.5	57.5	93	55.5	0	0	---	0.00	29.902 
06:45	57.5	57.5	57.5	92	55.2	0	1	135	0.00	29.906 
06:50	57.3	57.3	57.3	92	55.0	0	1	135	0.00	29.906 
06:55	57.3	57.3	57.3	92	55.0	0	1	135	0.00	29.906 
07:00	57.3	57.3	57.3	92	55.0	0	1	135	0.00	29.908 
07:05	57.3	57.3	57.3	92	55.0	0	2	135	0.00	29.908 
07:10	57.3	57.3	57.3	92	55.0	0	1	45	0.00	29.908 
07:15	57.3	57.3	57.3	92	55.0	0	2	45	0.00	29.909 
07:20	57.3	57.3	57.3	91	54.7	0	1	45	0.00	29.909 
07:25	57.3	57.3	57.3	91	54.7	0	2	45	0.00	29.909 
07:30	57.3	57.3	57.3	90	54.4	0	2	292	0.00	29.915 
07:35	57.5	57.5	57.5	90	54.6	0	2	292	0.00	29.915 
07:40	57.6	57.6	57.6	89	54.4	0	1	292	0.00	29.915 
07:45	57.8	57.8	57.8	88	54.3	0	1	292	0.00	29.917 
07:50	58.0	58.0	58.0	87	54.1	0	2	292	0.00	29.917 
07:55	58.1	58.1	58.1	86	53.9	0	4	112	0.00	29.917 
08:00	58.3	58.3	58.3	84	53.5	1	4	112	0.00	29.924 
08:05	58.3	58.3	58.3	84	53.5	0	1	112	0.00	29.924 
08:10	58.4	58.4	58.4	82	52.9	0	2	112	0.00	29.924 
08:15	58.6	58.6	58.6	82	53.1	0	2	112	0.00	29.934 
08:20	59.0	59.0	59.0	81	53.2	0	3	112	0.00	29.934 
08:25	59.8	59.8	59.8	80	53.6	0	3	112	0.00	29.934 
08:30	60.2	60.2	60.2	78	53.3	0	2	112	0.00	29.928 
08:35	60.7	60.7	60.7	75	52.7	1	4	90	0.00	29.928 
08:40	60.9	60.9	60.9	72	51.8	2	7	90	0.00	29.928 
08:45	61.2	61.2	61.2	73	52.5	1	5	112	0.00	29.937 
08:50	61.5	61.5	61.5	72	52.4	1	4	112	0.00	29.937 
08:55	62.0	62.0	62.0	73	53.2	0	3	112	0.00	29.937 
09:00	62.4	62.4	62.4	72	53.2	0	2	112	0.00	29.937 
09:05	62.7	62.7	62.7	69	52.4	1	4	158	0.00	29.937 
09:10	63.1	63.1	63.1	70	53.2	0	4	112	0.00	29.937 
09:15	63.2	63.2	63.2	69	52.9	1	3	112	0.00	29.937 
09:20	63.2	63.2	63.2	66	51.6	2	6	112	0.00	29.937 
09:25	63.2	63.2	63.2	67	52.1	1	3	112	0.00	29.937 
09:30	63.2	63.2	63.2	68	52.5	1	5	112	0.00	29.936 
09:35	63.4	63.4	63.4	65	51.4	2	5	112	0.00	29.936 
09:40	63.9	63.9	63.9	66	52.3	2	4	90	0.00	29.936 
09:45	64.2	64.2	64.2	65	52.2	1	5	112	0.00	29.936 
09:50	64.3	64.3	64.3	63	51.4	1	5	112	0.00	29.936 
09:55	64.2	64.2	64.2	61	50.5	2	6	112	0.00	29.936 
10:00	64.0	64.0	64.0	62	50.7	2	5	112	0.00	29.945 
10:05	63.9	63.9	63.9	63	51.1	1	4	135	0.00	29.945 
10:10	63.9	63.9	63.9	63	51.1	2	5	112	0.00	29.945 
10:15	64.2	64.2	64.2	63	51.3	1	2	112	0.00	29.946 
10:20	64.7	64.7	64.7	64	52.2	2	4	112	0.00	29.946 
10:25	65.0	65.0	65.0	59	50.3	2	7	135	0.00	29.946 
10:30	65.2	65.2	65.2	57	49.6	3	7	112	0.00	29.945 
10:35	65.2	65.2	65.2	58	50.0	3	9	112	0.00	29.945 
10:40	65.2	65.2	65.2	57	49.6	3	6	112	0.00	29.945 
10:45	65.3	65.3	65.3	58	50.1	2	7	112	0.00	29.947 
10:50	65.8	65.8	65.8	59	51.1	2	5	112	0.00	29.947 
10:55	66.1	66.1	66.1	61	52.3	2	5	90	0.00	29.947 
11:00	66.9	66.9	66.9	57	51.2	2	7	90	0.00	29.948 
11:05	66.9	66.9	66.9	59	52.1	2	6	112	0.00	29.948 
11:10	67.6	67.6	67.6	61	53.7	1	4	112	0.00	29.948 
11:15	68.1	68.1	68.1	61	54.1	1	4	112	0.00	29.949 
11:20	68.4	68.4	68.4	59	53.5	1	4	135	0.00	29.949 
11:25	68.4	68.4	68.4	57	52.6	1	5	112	0.00	29.949 
11:30	68.4	68.4	68.4	58	53.0	1	7	135	0.00	29.950 
11:35	68.4	68.4	68.4	55	51.6	2	5	135	0.00	29.950 
11:40	68.3	68.3	68.3	56	52.0	3	7	112	0.00	29.950 
11:45	68.3	68.3	68.3	61	54.3	2	7	112	0.00	29.949 
11:50	68.6	68.6	68.6	59	53.7	1	4	90	0.00	29.949 
11:55	68.9	68.9	68.9	57	53.0	2	6	90	0.00	29.949 
12:00	69.1	69.1	69.1	60	54.6	2	7	112	0.00	29.949 
12:05	68.9	68.9	68.9	57	53.0	2	5	90	0.00	29.949 
12:10	69.3	69.3	69.3	56	52.9	1	3	112	0.00	29.949 
12:15	69.3	69.3	69.3	57	53.4	2	7	112	0.00	29.955 
12:20	69.6	69.6	69.6	57	53.7	2	4	90	0.00	29.955 
12:25	70.1	70.1	70.1	57	54.1	1	3	112	0.00	29.955 
12:30	70.1	70.1	70.1	57	54.1	1	2	112	0.00	29.962 
12:35	70.3	70.3	70.3	56	53.8	0	2	112	0.00	29.962 
12:40	70.4	70.4	70.4	56	53.9	1	5	90	0.00	29.962 
12:45	70.6	70.6	70.6	56	54.1	1	6	112	0.00	29.964 
12:50	70.9	70.9	70.9	48	50.2	1	3	112	0.00	29.964 
12:55	71.3	71.3	71.3	52	52.8	1	2	112	0.00	29.964 
13:00	71.6	71.6	71.6	48	50.9	2	5	112	0.00	29.965 
13:05	71.6	71.6	71.6	49	51.4	2	6	90	0.00	29.965 
13:10	71.3	71.3	71.3	50	51.7	3	6	90	0.00	29.965 
13:15	71.3	71.3	71.3	53	53.3	1	4	112	0.00	29.962 
13:20	71.6	71.6	71.6	50	52.0	1	3	112	0.00	29.962 
13:25	71.8	71.8	71.8	55	54.7	2	5	112	0.00	29.962 
13:30	71.8	71.8	71.8	53	53.7	1	3	90	0.00	29.950 
13:35	72.1	72.1	72.1	47	50.7	0	2	90	0.00	29.950 
13:40	72.3	72.3	72.3	48	51.5	1	5	112	0.00	29.950 
13:45	72.1	72.1	72.1	47	50.7	2	7	90	0.00	29.950 
13:50	72.1	72.1	72.1	46	50.2	1	5	112	0.00	29.950 
13:55	72.3	72.3	72.3	47	50.9	2	4	112	0.00	29.950 
14:00	72.5	72.5	72.5	49	52.2	2	5	112	0.00	29.950 
14:05	72.8	72.8	72.8	50	53.1	1	4	135	0.00	29.950 
14:10	73.2	73.2	73.2	49	52.9	0	2	135	0.00	29.950 
14:15	73.3	73.3	73.3	48	52.4	2	5	90	0.00	29.945 
14:20	73.2	73.2	73.2	50	53.4	2	4	90	0.00	29.945 
14:25	73.2	73.2	73.2	53	55.0	2	5	112	0.00	29.945 
14:30	73.0	73.0	73.0	49	52.7	1	4	112	0.00	29.938 
14:35	73.0	73.0	73.0	50	53.2	1	4	90	0.00	29.938 
14:40	73.0	73.0	73.0	51	53.8	2	8	90	0.00	29.938 
14:45	73.3	73.3	73.3	50	53.5	1	4	90	0.00	29.944 
14:50	73.7	73.7	73.7	50	53.9	0	3	112	0.00	29.944 
14:55	73.9	73.9	73.9	51	54.6	1	4	112	0.00	29.944 
15:00	73.9	73.9	73.9	50	54.1	1	5	112	0.00	29.946 
15:05	73.9	73.9	73.9	52	55.1	0	2	135	0.00	29.946 
15:10	73.9	73.9	73.9	49	53.5	1	4	135	0.00	29.946 
15:15	74.2	74.2	74.2	51	54.9	1	4	135	0.00	29.950 
15:20	74.6	74.6	74.6	47	53.0	1	4	112	0.00	29.950 
15:25	74.7	74.7	74.7	50	54.8	1	4	90	0.00	29.950 
15:30	74.0	74.0	74.0	52	55.2	1	4	135	0.00	29.951 
15:35	74.0	74.0	74.0	48	53.0	1	5	90	0.00	29.951 
15:40	74.0	74.0	74.0	46	51.9	3	6	112	0.00	29.951 
15:45	74.0	74.0	74.0	52	55.2	1	3	90	0.00	29.955 
15:50	74.4	74.4	74.4	48	53.4	2	6	90	0.00	29.955 
15:55	74.7	74.7	74.7	49	54.3	2	6	112	0.00	29.955 
16:00	74.9	74.9	74.9	47	53.3	1	5	90	0.00	29.945 
16:05	74.7	74.7	74.7	44	51.3	2	4	90	0.00	29.945 
16:10	74.7	74.7	74.7	50	54.8	1	4	90	0.00	29.945 
16:15	74.9	74.9	74.9	48	53.9	1	3	90	0.00	29.944 
16:20	75.1	75.1	77.7	48	54.1	1	4	112	0.00	29.944 
16:25	74.9	74.9	74.9	43	50.9	2	4	112	0.00	29.944 
16:30	74.7	74.7	74.7	47	53.1	1	3	112	0.00	29.940 
16:35	74.9	74.9	74.9	46	52.7	0	2	112	0.00	29.940 
16:40	75.1	75.1	77.7	48	54.1	1	2	112	0.00	29.940 
16:45	75.3	75.3	77.7	44	51.9	1	5	112	0.00	29.946 
16:50	75.4	75.4	77.8	46	53.2	0	3	112	0.00	29.946 
16:55	75.4	75.4	77.7	42	50.7	1	3	112	0.00	29.946 
17:00	75.8	75.8	77.8	43	51.7	0	3	112	0.00	29.941 
17:05	75.4	75.4	77.7	43	51.3	3	5	90	0.00	29.941 
17:10	75.4	75.4	77.7	43	51.3	1	5	90	0.00	29.941 
17:15	75.6	75.6	77.8	46	53.3	1	3	90	0.00	29.936 
17:20	75.8	75.8	77.8	43	51.7	1	3	90	0.00	29.936 
17:25	75.6	75.6	77.8	44	52.1	1	4	90	0.00	29.936 
17:30	75.1	75.1	77.6	44	51.7	1	4	90	0.00	29.942 
17:35	75.1	75.1	77.6	43	51.1	1	3	135	0.00	29.942 
17:40	75.4	75.4	77.7	45	52.6	0	3	202	0.00	29.942 
17:45	75.8	75.8	77.8	43	51.7	0	2	202	0.00	29.943 
17:50	76.1	76.1	78.0	46	53.8	0	2	202	0.00	29.943 
17:55	76.1	76.1	78.0	44	52.6	1	4	90	0.00	29.943 
18:00	75.6	75.6	77.8	46	53.3	1	3	90	0.00	29.944 
18:05	75.1	75.1	77.7	46	52.9	0	1	112	0.00	29.944 
18:10	74.7	74.7	74.7	45	51.9	1	4	112	0.00	29.944 
18:15	74.6	74.6	74.6	45	51.8	1	2	112	0.00	29.946 
18:20	74.4	74.4	74.4	42	49.8	0	1	112	0.00	29.946 
18:25	74.4	74.4	74.4	48	53.4	0	2	112	0.00	29.946 
18:30	74.2	74.2	74.2	45	51.5	0	1	112	0.00	29.949 
18:35	74.0	74.0	74.0	46	51.9	0	1	112	0.00	29.949 
18:40	73.9	73.9	73.9	46	51.8	0	2	112	0.00	29.949 
18:45	73.7	73.7	73.7	45	51.0	0	2	112	0.00	29.948 
18:50	73.7	73.7	73.7	44	50.4	0	1	112	0.00	29.948 
18:55	73.5	73.5	73.5	46	51.4	0	1	112	0.00	29.948 
19:00	73.5	73.5	73.5	47	52.0	0	1	112	0.00	29.943 
19:05	73.3	73.3	73.3	48	52.4	0	1	112	0.00	29.943 
19:10	73.0	73.0	73.0	45	50.4	1	3	112	0.00	29.943 
19:15	72.8	72.8	72.8	46	50.8	1	3	112	0.00	29.939 
19:20	72.8	72.8	72.8	45	50.2	1	4	112	0.00	29.939 
19:25	72.7	72.7	72.7	46	50.7	1	2	112	0.00	29.939 
19:30	72.7	72.7	72.7	46	50.7	0	3	112	0.00	29.937 
19:35	72.5	72.5	72.5	48	51.7	0	2	112	0.00	29.937 
19:40	72.3	72.3	72.3	46	50.3	0	2	112	0.00	29.937 
19:45	72.3	72.3	72.3	47	50.9	0	2	112	0.00	29.935 
19:50	72.1	72.1	72.1	47	50.7	0	2	112	0.00	29.935 
19:55	72.1	72.1	72.1	46	50.2	1	3	112	0.00	29.935 
20:00	72.0	72.0	72.0	49	51.8	0	2	112	0.00	29.935 
20:05	71.8	71.8	71.8	49	51.6	0	0	---	0.00	29.935 
20:10	71.6	71.6	71.6	49	51.4	0	0	---	0.00	29.935 
20:15	71.5	71.5	71.5	49	51.3	0	1	112	0.00	29.932 
20:20	71.3	71.3	71.3	48	50.6	0	1	112	0.00	29.932 
20:25	71.1	71.1	71.1	50	51.5	0	1	112	0.00	29.932 
20:30	70.9	70.9	70.9	50	51.3	0	0	---	0.00	29.939 
20:35	70.8	70.8	70.8	50	51.2	0	0	---	0.00	29.939 
20:40	70.4	70.4	70.4	51	51.4	0	0	---	0.00	29.939 
20:45	70.1	70.1	70.1	51	51.1	0	0	---	0.00	29.933 
20:50	69.8	69.8	69.8	52	51.4	0	0	---	0.00	29.933 
20:55	69.4	69.4	69.4	53	51.5	0	0	---	0.00	29.933 
21:00	68.9	68.9	68.9	54	51.6	0	0	---	0.00	29.940 
21:05	68.4	68.4	68.4	56	52.1	0	0	---	0.00	29.940 
21:10	68.1	68.1	68.1	57	52.3	0	0	---	0.00	29.940 
21:15	67.8	67.8	67.8	58	52.5	0	0	---	0.00	29.939 
21:20	67.3	67.3	67.3	60	52.9	0	0	---	0.00	29.939 
21:25	66.8	66.8	66.8	61	52.9	0	0	---	0.00	29.939 
21:30	66.3	66.3	66.3	62	52.9	0	0	---	0.00	29.938 
21:35	66.0	66.0	66.0	63	53.0	0	0	---	0.00	29.938 
21:40	65.6	65.6	65.6	63	52.7	0	0	---	0.00	29.938 
21:45	65.3	65.3	65.3	65	53.2	0	0	---	0.00	29.940 
21:50	64.8	64.8	64.8	66	53.2	0	0	---	0.00	29.940 
21:55	64.3	64.3	64.3	67	53.1	0	0	---	0.00	29.940 
22:00	64.0	64.0	64.0	69	53.6	0	0	---	0.00	29.947 
22:05	63.7	63.7	63.7	70	53.7	0	0	---	0.00	29.947 
22:10	63.4	63.4	63.4	71	53.8	0	0	---	0.00	29.947 
22:15	63.2	63.2	63.2	72	54.0	0	0	---	0.00	29.948 
22:20	62.9	62.9	62.9	73	54.1	0	0	---	0.00	29.948 
22:25	62.6	62.6	62.6	74	54.2	0	0	---	0.00	29.948 
22:30	62.3	62.3	62.3	75	54.3	0	0	---	0.00	29.960 
22:35	62.0	62.0	62.0	77	54.7	0	0	---	0.00	29.960 
22:40	61.6	61.6	61.6	78	54.7	0	0	---	0.00	29.960 
22:45	61.5	61.5	61.5	78	54.6	0	0	---	0.00	29.965 
22:50	61.2	61.2	61.2	79	54.6	0	0	---	0.00	29.965 
22:55	60.9	60.9	60.9	79	54.3	0	0	---	0.00	29.965 
23:00	60.7	60.7	60.7	80	54.5	0	0	---	0.00	29.968 
23:05	60.5	60.5	60.5	81	54.6	0	0	---	0.00	29.968 
23:10	60.4	60.4	60.4	81	54.5	0	0	---	0.00	29.968 
23:15	60.1	60.1	60.1	81	54.2	0	0	---	0.00	29.966 
23:20	59.9	59.9	59.9	82	54.4	0	0	---	0.00	29.966 
23:25	59.8	59.8	59.8	83	54.6	0	0	---	0.00	29.966 
23:30	59.6	59.6	59.6	84	54.8	0	0	---	0.00	29.968 
23:35	59.5	59.5	59.5	84	54.7	0	0	---	0.00	29.968 
23:40	59.2	59.2	59.2	84	54.4	0	0	---	0.00	29.968 
23:45	59.0	59.0	59.0	84	54.2	0	0	---	0.00	29.973 
23:50	58.9	58.9	58.9	84	54.1	0	0	---	0.00	29.973 
23:55	58.9	58.9	58.9	85	54.4	0	0	---	0.00	29.973 

CoCoRaHS
IN-AL-39
A2 Web Hosting
Creative Commons License
GoDaddy
search engine by freefind advanced

loaded 2018-11-14 04:39:05 • last modified 2010-11-18 10:43:29
Privacy PolicyDisclaimer
• wx.awcolley.com is powered by PmWiki v.2002016 •
• all content (unless otherwise noted) © 2018 A W Colley